Location: Azat
(46.0765°N, 1.7600°E)
Time: 15:53:35
(UTC+00:00)

Cosmos 921 Rocket - Pass Details

Date: 09 April 2020
Orbit: 572 x 632 km, 75.8° (Epoch: 28 May)

Event Time Altitude Azimuth Distance (km) Brightness Sun altitude
Rises 18:59:22 0° 350° (N) 2,790 6.8 -5.3°
Reaches altitude 10° 19:01:49 10° 1° (N) 1,888 5.8 -5.7°
Maximum altitude 19:05:29 29° 63° (ENE) 1,078 4.0 -6.3°
Drops below altitude 10° 19:09:08 10° 124° (ESE) 1,887 4.9 -6.9°
Enters shadow 19:09:42 - 127° (SE) 2,087 5.2 -7.0°
